User: anonymous   Login
Location: Unspecified
(0.0000°N, 0.0000°E)
Time: 18:08:20
(UTC+00:00)
Language:

Tiros 10 - Orbit

View from above orbital plane
View from above orbital plane
View from above satellite
View from above satellite

Ground track
Ground track

The orbit data is extracted from the following two-line orbital elements,

1  1430U 65051A   18142.89214057 +.00000009 +00000-0 +16075-4 0  9999
2  1430 098.1895 286.4532 0055470 308.9924 050.6332 14.40223525771558
Epoch (UTC): 22 May 2018 21:24:40
Eccentricity: 0.0055470
inclination: 98.1895°
perigee height: 718 km
apogee height: 797 km
right ascension of ascending node: 286.4532°
argument of perigee: 308.9924°
revolutions per day: 14.40223525
mean anomaly at epoch: 50.6332°
orbit number at epoch: 77155

The dashed part of the orbit path shows where the satellite is in the earth's shadow,  

DLR